Regional Weather Roundup
Issued by NWS

Home | Current Version | Previous Version | Text Only | Print | Product List | Glossary On
Versions: 1 2 3 4 5 6 7 8 9 10 11 12 13 14 15 16 17 18 19 20 21 22 23 24 25 26 27 28 29 30 31 32 33 34 35 36 37 38 39 40 41 42 43 44 45 46 47 48 49 50
000
ASUS43 KLMK 040810
RWRKY
KENTUCKY REGIONAL WEATHER ROUNDUP
NATIONAL WEATHER SERVICE LOUISVILLE KY
400 AM EDT SAT JUL 04 2015

NOTE "FAIR" INDICATES FEW OR NO CLOUDS BELOW 12,000 FEET
WITH NO SIGNIFICANT WEATHER AND/OR OBSTRUCTIONS TO VISIBILITY.

KYZ001>023-026-027-061>063-070>075-040900-
WESTERN AND SOUTH CENTRAL KENTUCKY

CITY           SKY/WX    TMP DP  RH WIND       PRES   REMARKS
PADUCAH        CLOUDY    70  68  93 CALM      29.90S
HENDERSON      MOCLDY    64  64 100 CALM      29.90S
OWENSBORO      NOT AVBL
HOPKINSVILLE   MOCLDY    70  68  94 SW2       29.90S
BOWLING GREEN  PTCLDY    70  67  90 CALM      29.91S FOG
GLASGOW        MOCLDY    68  68 100 CALM      29.92S
$$

KYZ024-025-028>034-038-045-046-053-040900-
NORTH CENTRAL KENTUCKY

CITY           SKY/WX    TMP DP  RH WIND       PRES   REMARKS
LOUISVILLE/SDF CLOUDY    71  67  87 N3        29.91R
LOUISVILLE/LOU CLOUDY    70  68  93 CALM      29.91S FOG
FORT KNOX      CLOUDY    69  67  96 W3        29.91R FOG
$$

KYZ035>037-039>044-047>052-055>060-089>105-040900-
NORTHEAST KENTUCKY

CITY           SKY/WX    TMP DP  RH WIND       PRES   REMARKS
LEXINGTON      LGT RAIN  68  67  96 NW3       29.92S FOG
COVINGTON      CLOUDY    67  64  90 N5        29.92S
FRANKFORT      CLOUDY    68  66  93 NW3       29.91R FOG
$$

KYZ054-064>069-076>088-106>120-040900-
SOUTHEAST KENTUCKY

CITY           SKY/WX    TMP DP  RH WIND       PRES   REMARKS
JACKSON        CLOUDY    67  66  97 CALM      29.93R FOG
LONDON         CLOUDY    70  64  81 W7        29.94R
SOMERSET       CLOUDY    68  68 100 W3        29.95R
MIDDLESBORO    CLOUDY    67  67 100 CALM      29.96R
MONTICELLO     CLOUDY    70  70 100 CALM      29.96S
$$



USA.gov is the U.S. government's official web portal to all federal, state and local government web resources and services.